GFSWCAN_con_lsi_057.txt.gz
Lid_Strength_Index
2 2 2 2 1 1 1 1 2 2 3 3 4 4 4 3 4 8 9 8 9 13 12 11 11 12 12 13 14 14 14 14 15 17 18 17 19 15 16 15 15 16 19 19 19 20 19 11 12 14 13 12 11 12
2 2 2 2 0 1 1 1 1 2 3 3 4 4 4 3 3 7 9 8 9 11 12 10 10 10 11 11 12 14 13 14 13 16 16 16 15 15 15 17 14 16 14 16 15 16 12 12 12 11 10 11 12 12
4 2 2 2 1 1 1 1 1 2 3 3 4 4 4 3 3 7 10 9 10 12 12 11 12 10 9 10 10 12 12 11 11 11 12 13 13 14 16 16 16 12 12 14 14 13 12 11 11 11 11 11 10 10
5 2 2 2 1 1 1 1 1 2 3 3 4 4 4 3 4 7 9 10 10 11 14 13 9 11 9 10 10 10 10 11 11 11 13 16 16 12 15 14 14 12 13 14 15 14 13 12 12 11 10 10 10 10
5 3 2 2 2 1 1 1 1 2 3 3 4 4 4 4 5 8 9 10 10 12 14 13 11 10 10 10 9 10 10 11 12 13 14 16 13 13 15 15 16 12 13 14 15 12 13 13 11 10 10 11 10 10
5 2 3 2 2 1 1 1 2 2 3 3 4 4 4 5 6 11 13 10 8 10 12 16 12 12 11 10 10 11 11 12 13 13 14 13 12 13 19 18 13 12 11 11 12 12 12 11 10 10 10 10 10 10
5 2 3 3 2 2 1 2 2 3 3 3 4 4 5 6 9 12 13 11 7 10 13 17 17 12 12 11 12 12 12 12 12 13 14 13 13 14 19 19 12 12 12 12 12 11 13 11 11 10 10 9 8 9
4 2 3 3 2 2 2 2 3 3 3 4 4 5 5 6 7 10 8 6 9 12 13 18 18 15 13 14 14 13 13 13 13 14 14 14 14 16 19 14 12 11 12 12 12 12 12 11 10 10 9 9 9 9
4 2 3 3 2 3 3 2 3 3 4 4 5 6 9 10 12 11 6 8 10 13 18 20 19 19 13 15 14 14 14 17 14 16 15 15 17 19 14 13 12 11 12 12 12 12 11 11 11 10 10 10 10 9
5 3 3 3 3 3 3 4 4 4 4 5 9 12 14 11 7 8 11 13 14 14 14 18 17 18 14 17 18 17 18 18 19 16 15 19 17 14 13 12 11 11 11 11 12 13 12 12 11 11 10 9 9 8
4 2 3 3 3 3 4 5 4 4 6 10 12 13 11 7 11 13 16 17 17 18 15 16 16 16 13 15 16 16 19 19 21 18 17 19 19 15 14 13 12 12 10 10 10 10 10 11 11 10 10 9 9 8
4 3 2 3 4 4 5 5 5 8 9 10 10 9 11 13 16 17 19 17 18 17 16 15 15 15 15 13 15 17 19 20 22 17 20 19 17 14 14 13 12 11 11 10 9 9 9 10 10 10 10 9 8 7
4 3 2 3 4 5 5 5 6 7 8 10 12 14 16 18 21 19 22 20 20 16 16 15 16 15 15 14 16 18 21 21 16 21 19 18 16 14 13 12 11 11 10 10 10 9 9 9 9 9 9 8 8 8
4 4 3 4 5 5 5 6 7 8 11 14 16 20 18 23 20 19 18 17 16 15 15 15 16 15 16 16 18 21 18 18 23 23 20 17 15 14 14 13 12 13 12 12 11 10 10 10 9 9 8 8 8 8
4 3 4 5 5 5 6 6 7 10 12 16 16 17 20 18 18 17 16 16 16 13 15 16 16 16 19 19 19 18 17 19 20 20 18 16 15 14 14 13 13 12 11 11 10 10 9 9 9 9 8 7 7 7
3 3 5 5 5 6 6 6 9 10 13 16 18 20 18 18 18 16 16 16 15 14 15 15 18 21 20 19 21 20 21 22 19 17 15 14 14 14 14 13 12 12 12 10 10 10 9 9 8 8 7 7 7 7
3 6 5 5 6 6 6 10 11 14 16 20 19 16 17 15 16 16 14 15 12 14 18 18 23 21 20 24 22 19 19 18 16 15 14 14 14 13 13 13 12 11 10 10 10 9 8 7 8 8 8 7 7 7
7 6 5 6 6 7 9 11 14 17 19 16 19 17 16 15 15 15 15 13 14 15 15 17 17 20 21 22 20 17 16 15 15 14 14 13 13 13 12 11 10 10 10 10 9 9 8 8 8 8 8 8 7 7
6 6 6 6 7 9 13 13 14 20 18 16 16 15 15 15 15 14 13 14 14 13 15 19 21 20 17 17 16 16 16 15 14 13 13 13 12 12 11 11 10 10 10 9 9 8 8 8 8 8 9 8 10 8
6 6 6 6 7 11 14 15 14 16 17 16 15 15 15 16 15 14 13 15 14 14 18 20 18 16 16 15 14 14 14 13 14 14 13 12 12 11 11 10 10 10 9 8 8 6 8 8 7 7 7 6 6 7
7 6 6 9 11 12 13 15 16 15 15 16 15 15 16 16 16 16 16 15 16 17 17 15 15 14 13 13 12 12 12 12 13 13 13 13 11 11 11 10 10 9 9 8 8 8 7 8 7 7 5 5 5 5
7 7 10 10 14 14 14 13 14 14 15 15 15 15 16 17 17 17 16 17 16 13 14 14 13 12 13 12 12 12 11 12 12 12 9 10 11 11 10 10 9 10 9 9 8 8 8 7 7 6 5 5 4 5
8 9 12 13 14 14 16 13 16 16 16 17 16 17 18 18 17 15 17 16 15 14 13 12 12 11 11 11 12 12 11 12 12 12 11 11 10 10 10 9 8 8 9 8 7 8 8 6 6 5 5 5 5 6
8 13 14 15 15 17 14 16 15 16 16 17 18 19 18 18 17 18 18 16 15 14 14 13 12 13 13 13 13 12 11 11 11 11 11 11 11 10 9 8 8 8 8 8 8 8 8 8 6 7 6 6 6 6
14 15 15 17 15 18 17 17 17 17 18 17 18 18 19 17 20 18 18 17 16 15 14 14 13 13 14 14 13 12 11 11 12 12 11 10 10 10 10 9 9 8 7 8 9 9 7 7 7 7 8 7 7 7
18 16 17 17 18 18 17 18 17 17 17 17 18 18 18 18 20 20 17 16 16 15 15 14 14 14 14 13 13 13 11 11 11 11 10 10 9 9 10 10 10 9 7 7 8 7 7 7 7 7 7 7 6 7
19 19 16 15 15 15 16 16 16 16 17 19 19 18 19 22 20 17 16 15 16 15 14 14 13 13 14 15 12 11 11 10 10 9 9 9 8 8 8 9 10 9 7 7 6 7 7 7 7 7 7 7 7 7
16 15 17 16 16 15 17 16 16 17 17 17 16 18 18 18 18 15 14 14 15 13 14 13 12 12 12 11 11 11 11 10 10 9 9 9 9 8 8 8 7 5 7 7 7 7 6 7 7 7 7 8 7 7
15 14 15 17 16 16 16 16 16 16 15 15 16 17 16 15 14 14 14 15 13 14 14 14 15 12 12 12 11 11 10 10 11 11 11 12 9 10 9 8 9 9 8 7 6 6 6 6 7 7 7 7 7 7
15 14 15 15 16 17 15 15 16 15 15 14 14 15 14 14 16 17 15 14 14 13 13 14 13 12 13 12 12 12 11 10 9 10 11 12 11 10 9 9 9 9 8 7 7 7 6 6 7 8 8 8 8 8
13 14 15 15 17 16 15 14 14 14 15 15 14 14 15 14 13 13 13 14 15 15 13 15 14 13 12 12 12 11 11 10 10 9 9 10 10 10 9 9 9 9 8 8 8 8 9 8 8 9 9 9 9 8
14 15 15 17 16 15 14 14 14 14 14 14 14 14 14 13 13 12 13 13 13 12 10 11 12 12 11 11 10 10 7 9 9 9 9 10 10 10 10 10 9 9 9 9 9 8 8 9 9 9 9 9 9 8
15 15 15 15 17 15 14 14 14 16 15 15 14 14 13 13 13 11 14 14 12 12 11 11 11 10 10 10 10 9 8 10 8 6 6 7 7 8 9 10 9 8 9 9 9 9 9 10 10 10 9 9 9 9

GFSWCAN_con_lsi_060.txt.gz
Lid_Strength_Index
-1 2 2 4 2 1 1 1 1 1 2 2 3 3 3 3 3 7 9 9 10 13 13 11 11 13 13 13 14 14 14 14 15 17 17 17 19 16 18 16 16 17 20 20 20 21 20 12 12 14 13 12 12 13
-0 2 2 3 3 1 1 1 1 2 2 3 3 3 4 3 3 6 9 8 9 11 12 11 11 11 11 12 13 15 13 15 13 16 17 17 17 17 16 18 16 17 15 17 17 17 13 12 13 12 12 12 12 12
0 2 2 3 4 1 1 1 1 2 3 3 3 4 4 3 3 7 10 10 10 12 12 12 12 10 10 10 10 13 13 12 13 13 14 15 15 15 18 17 18 15 14 15 15 14 13 13 12 12 11 11 11 11
0 2 3 3 4 2 1 1 1 2 3 3 4 4 4 4 4 7 9 10 11 12 14 13 10 11 10 10 10 11 11 12 12 12 14 17 16 14 15 14 15 14 13 15 15 14 13 13 12 11 11 11 11 11
1 3 3 3 4 2 2 1 1 2 3 3 4 4 4 4 5 8 10 10 10 12 14 14 12 11 11 10 10 10 11 12 13 14 15 17 14 14 16 16 16 13 14 15 15 13 13 13 12 11 11 11 11 11
1 3 2 4 3 2 2 1 1 2 3 3 4 4 4 5 7 12 13 11 9 10 13 17 13 13 11 10 11 11 11 12 13 14 15 15 13 15 20 19 14 13 12 12 12 13 13 12 11 11 11 10 10 9
1 3 2 4 3 2 2 2 2 2 3 3 4 4 4 6 9 13 14 12 8 11 13 17 17 13 13 12 13 12 12 13 13 14 15 14 14 15 20 19 13 13 12 13 13 12 13 12 12 10 10 9 8 9
2 3 3 4 2 2 2 2 2 3 3 4 4 5 5 5 7 10 9 8 10 13 14 18 19 15 13 15 15 14 14 14 14 15 15 15 15 17 20 14 13 12 13 13 13 13 12 12 11 11 10 10 10 10
1 3 4 4 2 1 1 2 2 3 3 4 5 6 8 10 12 11 6 9 12 13 17 20 19 19 14 16 15 15 15 18 16 17 16 16 18 19 14 14 13 12 12 13 13 12 12 12 11 11 11 11 11 10
1 2 3 4 2 1 1 2 3 3 4 5 9 12 13 11 7 8 12 14 15 15 15 19 17 18 15 17 18 17 19 19 20 17 16 19 17 14 13 12 12 12 12 12 13 14 14 13 12 12 11 10 10 10
0 1 4 3 2 1 2 3 3 4 6 10 12 13 10 7 11 14 16 17 17 19 17 17 16 16 14 16 17 17 20 19 21 18 18 19 19 16 14 14 13 12 12 12 12 12 12 12 12 12 11 10 10 10
-0 0 4 3 2 2 3 4 5 7 9 10 10 9 10 13 15 17 20 17 19 19 17 17 16 15 15 14 16 18 20 21 22 18 20 20 17 15 14 14 14 13 12 12 11 11 11 10 10 10 10 10 10 9
-0 1 3 2 2 2 3 4 6 6 7 10 12 14 14 16 21 20 22 20 21 17 16 17 17 16 15 15 17 19 22 21 17 22 19 18 16 15 15 14 13 12 12 11 11 11 10 10 10 10 10 10 9 9
0 4 4 3 2 3 4 5 6 7 10 13 15 18 16 21 20 19 18 17 16 16 16 16 17 16 16 17 19 21 19 19 24 23 20 17 16 15 15 14 13 14 13 12 12 12 12 11 11 10 10 10 9 8
2 4 3 2 3 3 5 5 6 9 12 14 15 16 21 18 19 18 17 16 16 14 16 17 17 17 20 20 20 19 19 24 20 20 18 17 16 15 15 14 14 13 12 12 12 11 11 10 10 10 9 8 8 8
1 4 3 3 4 5 5 6 8 10 13 15 18 20 19 18 19 17 16 16 14 15 16 16 19 21 20 19 22 21 22 22 19 18 17 16 16 15 14 14 13 13 13 12 12 11 10 10 10 9 9 8 8 8
3 5 2 3 5 5 6 9 11 14 16 19 20 17 17 16 16 16 14 15 13 15 18 19 22 21 21 24 22 20 20 19 18 17 16 15 15 14 14 14 13 13 12 12 11 11 10 10 10 9 9 8 8 8
5 3 3 4 5 6 8 10 13 16 20 17 20 18 17 16 15 15 15 13 14 16 16 17 18 20 20 22 21 18 18 17 17 16 15 14 14 14 13 13 13 12 12 11 11 11 10 10 9 10 9 9 8 8
4 4 5 6 7 10 13 12 13 19 17 17 16 16 16 16 15 13 13 14 14 14 16 18 20 20 18 18 17 17 17 16 15 15 14 14 14 13 13 13 12 12 12 11 11 10 9 9 9 9 10 8 10 10
4 5 6 6 6 11 14 14 13 16 17 16 15 16 16 16 15 14 14 14 14 15 17 18 17 17 17 16 16 15 15 14 14 15 14 13 13 13 13 12 12 12 11 11 10 8 9 8 8 8 8 8 8 8
6 5 6 7 10 11 13 15 15 15 15 16 15 15 16 15 16 16 16 15 15 16 16 15 16 15 15 14 14 14 14 14 14 13 13 15 13 13 13 12 12 12 11 11 11 10 8 9 8 8 8 8 7 6
7 6 9 9 13 13 14 13 14 14 15 16 15 15 16 17 17 16 15 16 16 14 14 15 15 14 15 14 14 13 13 13 13 13 11 12 13 13 12 12 12 13 11 11 9 9 9 8 8 8 8 8 6 6
7 9 13 13 14 14 16 13 16 15 16 17 16 17 17 17 16 15 16 16 15 13 13 13 13 13 13 13 13 13 12 12 13 13 13 13 12 12 12 12 11 11 11 10 9 9 9 6 7 8 8 8 7 6
8 12 14 15 14 16 15 16 15 15 16 17 18 20 18 18 16 17 18 17 15 14 14 14 14 15 15 14 14 13 12 13 13 13 13 13 13 13 12 11 10 10 9 9 9 9 9 9 7 9 9 9 8 7
13 15 15 17 15 17 17 17 17 17 18 18 19 19 18 17 18 18 18 16 15 15 15 15 14 14 15 15 14 13 12 12 13 13 12 12 12 13 12 12 11 10 9 9 10 9 8 7 7 8 8 7 7 7
17 16 16 18 18 18 18 19 18 18 17 18 18 17 17 17 19 20 17 16 16 16 16 15 15 16 15 15 15 15 13 12 13 13 12 12 11 11 12 12 11 10 9 9 9 9 8 7 8 8 8 7 7 7
18 18 17 15 16 16 17 16 16 16 17 18 18 18 18 20 20 18 16 16 16 17 15 14 13 14 15 16 14 13 13 12 12 11 11 11 11 10 10 11 11 9 8 8 8 7 7 8 8 8 8 7 7 7
15 15 17 17 17 15 17 16 17 17 17 16 16 18 18 18 18 16 16 15 16 15 15 15 14 13 14 13 13 12 13 12 12 11 11 11 11 10 9 9 8 6 8 8 9 9 9 7 7 8 8 8 8 7
16 15 15 18 16 16 16 16 16 16 15 15 17 17 16 16 15 16 15 15 14 14 15 15 16 14 14 13 13 13 12 11 12 13 13 14 12 12 10 9 9 10 10 9 6 6 6 6 7 8 8 8 8 7
15 14 16 16 17 17 16 15 16 15 15 15 15 15 15 15 17 17 15 15 15 15 15 14 13 13 13 13 13 13 12 12 11 12 13 13 12 10 10 10 10 10 9 9 9 8 7 8 7 8 8 9 8 8
14 14 16 16 17 16 16 15 14 14 15 15 15 16 16 16 15 15 15 18 17 15 15 15 15 15 12 13 12 12 13 12 12 11 11 11 10 10 9 9 10 9 9 9 10 9 9 9 9 9 9 9 9 8
15 15 15 17 17 15 15 15 15 15 15 15 16 16 15 15 15 15 15 15 14 13 12 13 13 13 12 12 11 11 9 11 11 11 10 10 10 10 10 10 9 9 9 10 10 9 9 9 10 10 10 9 9 9
15 15 15 16 17 16 15 15 16 16 16 16 16 16 15 15 15 14 16 17 14 13 13 12 12 11 11 11 11 11 10 11 9 7 6 7 7 8 10 10 9 9 10 10 10 9 10 10 10 10 10 10 9 9

GFSWCAN_con_lsi_066.txt.gz
Lid_Strength_Index
2 1 1 1 1 -0 -0 -1 -1 0 2 2 1 1 2 1 2 4 5 5 5 7 9 9 9 11 10 9 10 11 11 11 10 11 10 10 10 11 12 12 12 12 12 13 13 13 14 9 10 11 8 8 8 8
1 1 0 -0 -0 -1 -1 -1 0 2 2 2 2 1 2 1 2 3 6 5 6 6 9 9 9 9 9 9 9 10 9 10 8 9 10 10 11 11 11 12 11 12 10 10 10 10 10 8 9 8 8 8 8 8
0 -0 -0 -1 -1 -1 -1 -1 -0 2 2 3 2 2 2 1 2 3 6 6 6 8 9 9 10 8 8 8 8 9 8 8 9 8 8 9 10 9 11 11 11 10 10 10 11 9 10 9 8 8 8 8 8 8
-1 -1 -1 -1 -1 -1 -1 -0 1 1 2 3 3 2 2 2 2 3 6 6 6 7 9 10 8 9 8 8 8 8 8 8 7 6 7 8 9 9 9 10 10 9 10 10 10 9 10 9 8 8 8 8 8 8
-1 -1 -1 -1 -1 -1 -1 -0 1 1 2 1 2 2 2 2 2 4 5 6 6 7 9 10 9 9 8 8 8 8 7 7 7 8 8 8 8 9 9 10 10 9 9 10 11 9 8 9 8 8 8 9 8 8
-1 -1 -1 -1 -1 -1 -1 0 2 1 2 2 2 2 2 2 4 5 7 5 6 6 8 11 10 10 9 8 8 8 8 8 7 7 9 9 9 8 10 10 8 8 8 8 9 9 9 9 8 7 8 8 8 7
-1 -1 -1 -1 -1 -1 -1 1 2 2 2 2 3 2 3 3 4 7 8 7 6 6 8 12 11 10 11 9 9 8 8 8 7 8 9 9 9 9 10 11 8 9 8 9 8 9 10 9 9 8 8 8 7 7
-1 -1 -1 -1 -1 -1 -1 1 2 2 2 2 3 3 3 5 6 7 6 7 7 8 8 12 13 11 10 10 10 10 9 8 10 9 9 9 10 10 13 9 9 9 9 9 8 9 8 7 7 8 7 7 7 7
-1 -1 -1 -1 -1 -1 -0 1 2 2 2 2 3 4 6 6 8 7 7 8 8 8 10 11 12 13 10 11 10 10 10 10 10 10 10 10 10 13 10 9 9 9 10 9 9 9 9 8 8 8 7 7 8 7
-1 -1 -1 -1 -1 -1 1 2 2 2 3 2 5 9 10 8 6 7 8 10 9 10 10 12 11 13 11 11 12 11 11 11 12 12 11 12 12 9 9 9 9 9 9 9 10 11 10 9 8 8 8 7 7 7
-0 -0 -0 -1 -1 -1 1 2 2 3 3 7 10 11 8 5 8 10 12 11 11 12 12 12 12 13 11 12 12 12 12 13 13 13 13 13 13 11 11 10 9 9 8 8 9 8 8 7 8 8 8 8 7 7
-0 -0 -0 -0 -0 -1 1 3 3 4 6 8 8 7 8 10 11 12 13 14 14 13 14 13 13 11 12 11 12 13 14 14 15 13 14 15 11 12 12 11 10 9 9 9 9 9 8 8 8 8 7 7 7 6
-0 -0 -0 -0 -0 1 2 4 3 4 5 7 8 11 12 13 15 16 19 16 16 14 14 13 13 12 13 11 13 13 14 15 14 15 15 13 12 12 12 11 11 10 10 9 9 8 8 8 8 7 8 7 7 6
-0 -0 -0 -0 -0 2 4 3 4 5 7 10 13 16 14 16 15 14 14 14 13 13 13 12 14 12 13 13 14 14 16 14 17 17 16 12 12 12 12 11 11 11 10 10 9 8 8 9 9 8 7 6 6 6
-0 -0 -0 -0 -0 2 3 3 4 5 7 11 11 14 15 13 14 14 13 14 13 12 13 13 13 12 14 16 15 17 19 18 16 15 13 13 12 12 12 11 11 10 10 10 9 9 9 8 8 7 6 6 5 5
-0 -0 1 -0 0 2 2 3 5 7 10 11 13 15 15 14 15 14 14 14 12 12 12 11 14 15 16 15 17 17 16 17 13 13 13 13 12 12 12 11 11 10 10 9 9 9 9 9 8 7 6 6 5 5
0 2 0 -0 2 2 4 6 8 12 12 13 13 13 13 13 13 13 13 13 11 13 14 13 15 15 16 17 17 16 16 13 13 13 13 12 12 12 11 11 11 11 10 9 9 9 9 9 7 7 7 5 5 4
2 1 0 0 4 5 8 10 12 12 13 13 14 14 14 13 13 13 13 12 12 14 13 13 15 17 16 16 17 14 14 14 13 13 13 12 12 11 11 11 10 10 9 9 9 9 9 8 7 6 6 5 5 4
1 0 1 3 6 10 12 12 11 14 14 13 13 13 13 13 12 12 12 13 13 13 14 14 14 14 15 14 13 14 13 14 14 13 13 12 11 11 11 11 10 10 9 9 9 9 8 8 6 6 5 5 4 4
0 0 2 4 5 10 12 12 10 12 14 13 13 14 13 13 12 12 14 14 13 13 13 14 13 13 13 13 12 12 12 12 13 13 14 13 12 11 11 10 10 10 9 9 9 10 8 7 6 6 5 5 5 5
2 3 3 6 9 9 10 12 12 11 12 13 13 13 14 13 14 14 14 13 13 13 13 13 13 13 13 13 12 12 13 12 12 12 12 12 12 11 11 10 10 9 9 9 9 9 8 7 6 6 5 5 5 6
3 3 9 7 11 11 11 10 11 11 12 13 13 13 14 15 15 14 13 13 13 13 12 13 13 13 14 14 13 12 12 11 11 11 11 11 12 12 11 10 10 10 9 9 9 8 7 7 6 6 6 6 6 6
5 7 9 10 11 12 13 10 12 11 14 14 13 15 15 15 14 13 14 13 12 12 12 12 13 13 13 13 12 12 11 11 12 11 11 11 11 10 10 10 10 10 10 10 9 8 7 7 7 7 7 7 7 7
5 10 11 11 12 14 12 13 12 13 13 15 15 17 16 15 14 14 15 14 13 12 12 13 13 14 14 13 13 13 12 11 11 12 11 11 11 11 10 10 10 9 9 9 8 8 8 7 7 7 8 8 8 8
10 12 12 14 12 14 14 14 14 14 15 15 16 17 16 15 16 16 16 15 14 13 12 12 12 12 13 13 12 12 12 11 11 11 12 11 11 12 11 11 10 9 9 9 9 8 8 7 7 7 8 8 9 9
13 12 12 13 14 14 14 16 15 14 14 16 16 15 15 16 17 17 16 14 13 12 12 12 12 12 12 11 12 12 12 11 11 11 11 11 10 10 11 11 11 11 9 7 8 8 8 8 7 8 8 8 8 8
14 14 13 12 12 13 14 13 12 14 15 17 16 17 16 17 17 16 14 13 13 11 10 10 11 11 11 12 12 11 11 11 11 11 10 11 10 9 9 10 10 8 8 7 7 7 8 8 7 8 8 8 8 8
12 12 15 14 13 12 13 13 14 15 15 15 15 17 16 16 15 14 14 13 14 12 11 11 10 10 11 12 12 12 12 12 12 12 12 11 11 10 10 9 9 8 7 7 7 7 7 7 7 7 8 8 8 7
13 12 12 15 13 13 13 14 14 13 13 14 15 16 15 15 15 15 15 15 14 13 14 14 14 13 13 12 12 12 12 11 12 13 12 12 12 11 10 9 8 7 7 7 7 7 6 6 6 7 7 7 7 7
12 11 13 14 15 15 15 14 14 14 14 14 14 14 14 15 15 15 15 14 14 13 13 13 14 13 13 13 14 13 11 10 10 10 11 12 10 10 9 9 8 8 7 7 7 7 6 6 6 7 8 8 8 8
11 12 14 15 16 15 14 13 13 13 14 14 13 14 15 15 14 14 15 15 14 13 14 14 13 13 12 12 12 13 13 12 12 11 10 10 10 9 9 8 8 8 8 8 8 8 7 8 8 8 9 9 9 9
12 13 14 16 15 13 12 14 14 15 14 14 15 14 15 14 16 15 16 15 14 13 13 13 13 13 11 11 11 10 10 10 11 11 11 10 10 9 8 9 8 8 8 8 8 7 7 8 8 9 9 10 9 9
13 13 13 14 14 15 14 14 15 15 16 16 16 16 16 15 16 16 16 16 14 13 13 13 12 12 12 11 11 11 11 11 10 10 9 9 9 8 8 8 8 7 8 8 7 8 8 9 9 9 9 9 9 9

GFSWCAN_con_lsi_072.txt.gz
Lid_Strength_Index
3 3 3 3 3 3 2 3 3 2 2 2 1 2 1 2 1 2 1 1 2 6 5 6 7 8 7 7 9 10 10 10 11 12 11 12 12 11 11 11 12 13 14 15 14 16 17 9 10 13 10 9 8 9
4 3 3 3 3 3 3 3 2 2 2 2 1 1 1 1 2 1 3 1 1 4 6 6 6 5 6 7 9 9 9 9 9 11 10 10 12 11 11 14 11 14 11 12 12 12 9 9 9 8 8 8 9 9
3 3 3 3 3 3 3 2 2 2 2 1 1 1 1 1 2 1 3 1 2 6 6 7 7 5 5 6 7 9 8 7 8 7 7 9 11 9 12 12 12 11 10 12 12 10 10 9 9 8 8 9 8 8
3 3 3 3 3 3 2 2 3 2 1 1 1 0 1 1 2 2 2 0 2 6 9 8 6 7 5 6 7 7 8 7 7 7 7 10 12 9 11 11 12 11 10 11 12 11 10 9 9 8 8 8 8 8
3 3 3 3 3 2 2 2 2 2 1 1 1 -0 0 1 1 1 1 0 1 6 9 8 7 7 7 7 7 7 8 8 8 9 9 10 9 9 10 11 11 9 11 13 13 10 10 10 8 7 8 9 9 9
3 3 3 3 2 2 2 2 1 1 1 1 0 0 0 0 -1 1 5 2 2 4 8 10 8 8 7 7 7 8 7 8 7 8 8 8 8 8 12 12 9 9 8 9 11 9 9 9 8 8 8 8 9 9
3 3 3 3 2 2 2 2 2 1 1 0 0 0 0 -0 1 4 5 5 4 4 8 10 10 8 7 7 7 8 8 8 8 8 9 9 9 9 11 13 9 8 9 9 8 9 10 9 10 8 8 8 8 9
3 3 3 2 2 2 2 2 1 1 0 0 0 0 0 -0 1 4 2 3 4 6 7 11 11 11 8 10 10 9 9 8 9 9 10 10 10 10 13 9 8 8 9 9 9 9 9 9 9 9 9 9 11 11
3 2 2 2 2 2 1 1 1 0 -0 -0 0 0 1 3 5 4 2 2 4 7 11 11 14 12 9 9 10 10 9 11 10 11 10 10 11 13 10 10 9 9 10 9 9 9 10 10 10 10 10 11 11 11
3 3 2 2 2 1 0 0 0 -0 -1 0 2 4 7 6 2 4 6 8 8 8 9 10 9 12 10 10 11 11 10 11 13 11 11 13 12 9 8 8 9 9 9 9 10 11 11 11 11 11 11 11 10 10
3 2 2 2 1 1 0 -0 -1 -1 -0 3 6 7 3 2 5 7 12 11 10 11 10 10 10 12 9 11 12 10 12 12 14 13 13 13 13 11 10 10 9 9 9 9 10 10 10 10 11 11 10 10 10 10
2 2 1 1 0 0 -0 -1 -1 1 1 3 3 1 4 8 10 11 12 10 11 12 10 12 11 10 11 9 12 13 13 13 15 12 14 15 12 11 11 10 9 9 9 10 10 10 10 10 10 10 10 10 9 9
2 2 1 0 -1 -1 -1 -1 -1 -0 1 2 4 8 9 10 13 13 15 13 12 11 11 11 13 12 12 10 12 12 15 15 13 15 16 13 11 11 11 10 10 9 10 11 11 10 10 10 10 9 10 10 9 9
1 0 -0 -0 -0 -1 -1 -1 -1 0 3 7 10 11 11 12 12 12 12 11 10 10 11 10 12 12 12 12 12 15 14 14 17 17 16 12 12 12 11 10 10 11 11 11 11 11 11 10 10 10 10 9 9 9
-0 -0 -0 -0 -0 -0 -1 -1 -1 1 5 8 9 12 12 9 8 9 8 8 9 9 10 11 11 11 13 15 13 15 17 18 16 16 13 11 11 12 12 11 10 11 11 11 11 11 11 11 11 10 10 10 9 9
-0 0 1 -0 -0 -0 -0 -0 0 1 5 8 9 9 8 10 9 9 8 10 8 9 9 10 12 13 14 14 16 17 17 17 15 12 11 11 12 12 11 11 11 11 11 11 12 11 11 11 11 11 10 10 9 9
0 2 0 -0 -0 -0 -0 1 5 8 8 9 9 7 7 8 8 9 8 10 8 9 12 11 15 15 13 16 16 14 15 12 11 11 11 11 12 12 11 11 11 12 12 12 12 12 11 11 11 11 11 10 9 8
2 1 -0 -0 -0 0 3 4 7 8 9 8 9 7 6 6 6 8 8 8 9 10 9 11 12 15 16 17 15 13 12 11 11 11 11 11 11 11 11 12 12 12 12 12 12 12 12 11 11 11 10 10 9 8
1 0 -0 -0 0 5 7 8 7 9 8 7 6 5 6 7 7 7 8 8 9 9 10 11 13 13 14 12 12 12 11 12 12 12 12 11 11 12 12 12 12 12 12 13 12 12 11 10 10 10 10 9 10 9
0 0 0 -0 1 6 8 8 6 8 9 7 6 7 7 8 7 8 9 10 10 10 12 14 12 11 11 11 10 10 11 11 12 13 13 12 12 12 12 12 12 12 12 12 11 10 11 11 10 10 10 10 10 10
1 1 0 1 6 5 7 8 8 7 7 8 7 8 9 8 9 10 12 10 12 12 12 11 12 12 11 10 10 10 11 11 12 12 13 13 12 12 12 12 12 12 12 12 13 12 10 11 11 10 10 10 10 10
2 1 5 4 7 8 8 7 7 6 7 7 8 8 11 11 12 12 11 12 12 11 10 11 12 12 12 11 11 11 11 11 11 11 11 11 12 12 12 12 12 13 12 12 11 12 11 11 11 11 11 11 10 10
2 4 7 7 8 8 9 5 8 8 9 9 8 10 12 12 11 10 13 12 10 10 10 11 12 11 11 11 11 11 11 11 12 12 12 12 12 12 12 12 11 11 12 12 11 11 11 11 10 12 11 11 11 10
3 6 8 8 8 10 9 9 8 8 8 10 11 12 12 12 11 13 14 13 11 11 12 12 12 12 12 12 12 12 11 11 12 12 12 12 13 13 11 11 11 10 11 11 10 11 11 12 11 11 11 11 11 10
9 9 8 10 8 10 10 10 10 10 11 11 12 13 13 12 14 15 15 13 12 12 12 12 12 12 13 12 12 12 11 11 12 13 12 11 11 11 12 12 11 11 10 11 12 12 12 12 12 11 11 11 11 10
11 10 9 10 10 10 10 11 11 10 11 12 12 12 12 13 15 16 14 12 12 12 12 12 13 13 13 12 12 12 11 10 11 12 12 11 11 12 13 13 13 13 10 10 11 12 12 12 12 11 11 11 10 10
12 11 9 7 7 8 9 8 8 9 11 13 13 14 13 15 15 14 12 10 11 10 10 11 11 12 12 12 11 11 10 11 11 11 11 11 11 10 11 12 13 11 10 10 10 11 12 12 12 11 11 11 11 10
9 9 11 10 9 8 10 10 10 11 12 12 12 14 14 14 14 13 13 11 10 10 10 10 10 10 11 11 11 11 11 11 11 11 12 12 11 10 10 10 9 9 10 10 11 11 11 11 11 11 11 11 11 9
9 9 9 11 9 9 9 10 10 10 10 11 12 13 15 15 15 14 14 13 10 10 11 11 12 11 11 11 11 12 12 12 13 15 15 15 14 14 11 11 10 10 11 11 9 10 10 10 10 10 10 10 10 9
9 7 9 10 11 11 11 11 11 11 11 11 12 13 14 15 14 13 13 12 11 11 11 11 11 12 13 13 14 13 12 12 12 13 14 14 13 12 11 11 11 11 11 11 11 11 8 10 9 11 11 11 11 10
8 9 11 11 12 11 11 10 10 10 11 12 12 13 14 14 14 14 14 13 12 11 12 12 12 12 13 13 13 13 14 12 12 11 11 11 11 11 11 11 11 11 11 11 11 11 11 12 12 12 12 11 11 10
9 11 12 13 13 11 10 11 12 12 13 12 13 13 14 14 16 15 15 14 12 12 11 12 13 13 12 11 11 12 11 12 11 11 11 11 11 11 11 11 11 11 11 11 11 11 11 12 12 12 12 11 11 11
10 10 10 11 12 12 11 12 13 14 14 14 14 14 15 15 17 16 15 15 14 12 12 12 11 11 12 12 12 12 12 12 11 10 10 10 10 11 11 11 11 11 12 12 12 12 12 12 12 12 12 11 11 10